Dewpoint
51 51 51 50 49 49 50 51 50 50 50 49 49 49 50 51 51 50 50 51 51 51 51 52 51 50 50 50 50 50 51 44 42 42 41 40 46 54 53 53 54 57 56 40 32 30 29 28 27 32 32 31 32 32 32 27 22 25 20 15 15 16 15 16 16 16 16 15 16 16 16 15 14 15 16 17 15 16 17 29 51 53 57 59 61 62 62 63
50 49 50 50 50 49 49 51 51 50 50 50 49 48 50 51 51 51 51 50 50 50 50 50 51 50 50 50 50 51 48 43 42 42 42 42 50 55 53 54 55 53 53 32 31 31 28 26 25 24 29 29 32 31 29 25 22 17 19 16 13 14 15 17 17 17 16 15 16 15 15 15 14 15 17 14 18 15 15 35 53 60 61 62 62 62 62 62
50 50 49 49 50 51 51 51 51 51 50 49 50 50 49 50 52 51 51 50 50 50 50 50 50 50 50 51 51 51 45 41 40 36 37 57 54 57 56 55 57 55 33 32 32 30 28 26 24 23 24 26 29 30 27 25 19 18 17 14 14 14 15 17 17 17 17 17 16 16 16 15 15 15 24 13 13 18 50 56 56 59 61 61 61 61 62 62
50 50 50 49 49 49 50 50 50 50 50 50 49 50 50 49 50 51 51 50 51 49 49 49 50 49 50 50 51 49 42 40 36 36 44 52 58 58 57 55 54 47 37 35 33 31 29 26 24 23 23 29 27 29 24 22 16 15 15 14 14 15 14 15 16 17 16 16 16 16 15 15 15 14 15 18 13 13 21 56 57 59 61 61 61 61 62 62
48 48 49 49 49 49 49 49 49 49 50 50 49 49 50 49 49 50 51 51 50 51 49 50 49 49 49 50 51 45 40 18 22 43 45 51 55 55 54 55 51 44 39 38 35 32 30 25 22 22 25 31 30 26 26 24 19 13 13 15 15 15 14 15 16 16 16 16 15 15 14 14 15 14 13 16 15 14 14 25 58 60 61 62 61 62 62 63
48 49 50 50 50 50 50 50 50 50 49 49 49 49 49 50 49 49 50 51 50 50 50 49 50 49 49 51 48 43 37 6 36 41 51 52 53 52 53 53 52 49 42 35 32 30 25 19 21 21 25 29 31 28 25 25 21 15 14 11 12 14 14 16 15 15 15 15 14 14 14 14 14 13 15 17 15 17 18 31 58 60 62 62 62 62 63 63
48 50 50 50 50 50 50 50 50 50 50 49 50 49 49 49 49 49 49 51 51 50 50 50 49 49 49 50 44 40 38 34 35 42 54 53 53 52 52 50 52 47 38 34 32 24 17 13 16 18 23 24 24 26 30 26 22 18 14 12 9 10 12 14 14 15 14 14 14 14 15 13 13 12 13 12 13 14 19 21 58 61 63 63 63 63 63 63
48 48 48 49 49 49 49 49 49 49 50 50 49 49 50 50 50 49 49 49 51 50 49 49 50 49 49 45 39 36 36 35 37 44 55 55 53 52 52 51 46 40 34 32 25 17 15 14 13 16 21 23 23 22 28 28 28 22 18 16 12 9 8 10 12 12 13 14 14 14 13 13 13 13 13 12 12 12 16 55 57 62 63 63 63 63 63 63
48 48 47 48 49 50 50 50 49 49 49 49 49 49 49 49 50 50 50 50 49 49 48 48 49 49 49 45 39 35 30 36 35 46 54 52 49 49 47 40 44 35 30 23 20 17 17 14 15 15 19 17 24 23 23 19 18 25 24 18 13 11 9 7 8 9 10 11 13 13 13 13 13 14 13 13 12 12 41 57 58 62 62 62 62 63 63 63
47 48 48 48 48 49 49 49 49 49 49 48 49 49 49 49 48 49 49 49 49 49 49 49 49 49 46 41 37 31 30 37 43 37 40 46 47 44 40 39 31 26 18 15 14 14 14 14 15 15 13 12 12 14 18 18 16 17 16 16 16 14 10 9 6 6 7 8 10 10 11 13 13 13 11 13 13 13 48 59 61 62 62 62 62 63 63 63
47 47 47 47 48 48 48 48 48 48 49 49 49 48 49 49 49 49 49 48 49 49 49 49 48 48 44 41 37 31 36 33 35 34 32 31 31 38 33 30 24 21 19 16 16 18 17 16 16 13 13 12 13 16 19 17 18 15 13 13 12 12 12 11 8 6 6 5 7 8 9 10 12 12 12 13 18 29 42 59 61 61 61 61 62 63 63 63
46 47 47 47 48 48 48 48 48 48 48 48 48 48 48 49 48 48 49 49 49 49 48 49 49 46 44 41 38 36 37 37 38 35 32 33 31 29 28 26 24 22 19 16 16 17 17 16 15 15 11 14 12 14 15 21 19 22 23 21 18 14 12 11 10 8 6 4 5 6 6 7 8 9 11 15 18 41 53 59 60 61 61 61 62 63 63 63
46 46 46 47 47 48 48 48 48 48 48 48 48 48 48 49 49 48 49 49 50 49 49 48 49 47 44 37 36 38 39 38 37 36 35 34 31 31 30 27 24 22 20 17 16 17 17 17 16 11 13 15 14 13 18 18 19 22 22 21 18 15 13 13 12 9 6 5 5 5 2 4 6 8 9 11 16 35 57 58 59 60 61 61 61 62 63 63
46 46 46 46 47 47 47 47 48 48 48 48 48 48 48 49 50 50 50 50 51 51 50 49 49 45 41 37 38 38 37 36 35 34 34 34 31 31 29 28 26 23 20 17 16 17 18 17 14 12 13 12 15 20 17 17 21 20 21 21 18 14 12 13 13 11 8 7 4 4 2 2 5 7 8 11 14 34 56 58 59 60 61 60 61 62 63 63
47 46 46 46 47 47 47 47 47 47 48 48 49 48 49 49 50 50 51 51 51 51 51 49 47 43 39 38 40 39 48 46 42 39 37 34 33 31 29 26 24 24 22 19 18 19 19 17 16 13 11 19 18 17 16 18 21 22 20 18 16 14 13 14 17 13 7 8 5 3 3 2 3 5 8 16 23 32 51 57 58 60 61 60 61 61 62 63
47 47 47 46 46 46 47 47 47 47 47 48 48 49 49 50 50 51 51 51 52 52 51 46 45 42 37 34 34 43 36 39 37 39 39 35 34 31 29 25 23 21 20 18 19 19 18 14 12 12 13 13 13 14 15 15 16 20 19 21 17 14 13 13 15 16 14 10 6 3 1 3 3 4 6 21 28 32 49 56 56 60 61 61 61 61 62 63
46 46 46 45 46 46 47 47 47 47 47 48 49 49 50 50 51 51 51 51 50 48 45 41 41 42 32 35 37 33 31 32 37 37 37 37 34 33 30 26 22 18 16 19 19 18 17 16 19 17 14 10 15 17 15 15 15 17 20 20 20 18 15 12 15 15 15 13 9 4 2 2 5 6 11 25 31 35 49 54 56 60 61 61 62 61 62 63
46 46 46 46 46 46 46 47 47 47 48 48 48 48 47 49 51 51 48 49 49 45 46 43 40 38 34 36 29 30 32 31 35 32 33 36 35 33 27 18 18 14 12 11 12 17 17 14 12 14 16 13 13 14 15 12 14 15 18 20 19 18 16 13 12 13 13 12 9 8 3 2 4 6 5 10 27 28 37 53 55 60 62 62 62 62 62 63
47 45 45 46 45 45 46 46 47 47 47 48 48 48 48 49 48 46 45 46 40 36 32 36 36 26 26 29 34 34 33 33 32 22 22 29 31 29 22 23 18 15 12 9 9 12 13 13 20 12 9 12 10 10 12 13 14 15 17 19 18 17 16 13 14 14 14 11 10 9 8 5 3 4 7 16 17 14 20 50 55 60 62 62 62 62 62 62
46 47 45 45 45 45 46 46 46 47 47 46 44 44 42 37 36 35 41 43 39 35 33 33 39 36 36 35 35 35 35 33 28 23 21 22 21 21 20 21 18 14 12 16 10 10 15 12 10 9 9 8 10 11 11 12 13 12 11 11 12 13 11 11 12 13 13 11 10 10 9 8 6 4 7 9 14 21 18 41 54 59 61 61 62 62 62 62
47 46 45 45 45 45 45 46 47 47 47 45 44 42 35 35 33 32 35 35 36 37 37 37 36 36 35 36 35 34 31 29 29 29 26 34 22 18 17 16 15 17 15 12 12 14 11 15 12 10 9 8 8 10 12 11 11 11 10 9 7 6 7 7 7 11 14 13 11 11 10 9 9 8 6 8 9 16 19 31 50 56 60 61 61 62 63 62
47 46 45 45 45 45 45 46 47 47 48 44 44 42 38 37 38 37 36 33 34 35 35 34 34 33 34 34 34 33 31 28 28 29 27 21 21 18 20 14 15 12 15 14 13 15 14 11 11 12 10 9 9 9 9 10 10 9 9 8 7 5 4 4 4 5 7 11 13 12 11 10 12 11 9 8 7 10 18 20 50 51 56 58 60 62 62 63
45 45 45 45 45 46 46 47 47 48 45 42 42 42 38 39 41 41 36 34 33 35 35 34 33 33 33 34 33 32 29 28 27 27 24 25 21 19 18 15 18 15 14 13 14 16 13 11 10 11 12 9 7 7 8 8 9 9 9 7 6 6 5 4 5 5 5 8 10 12 11 11 12 13 11 11 8 8 9 15 41 52 53 55 58 60 62 62
46 46 45 45 46 46 47 47 47 44 43 43 43 42 41 42 42 38 36 31 31 33 32 33 34 33 32 30 29 30 28 26 25 22 28 26 21 20 19 18 17 18 15 11 10 10 9 10 9 7 7 9 8 7 6 8 8 9 7 6 5 4 4 5 6 6 6 5 6 7 10 13 13 11 11 12 17 19 17 24 27 45 51 52 56 58 61 62
45 45 45 45 46 47 47 47 43 43 43 44 42 41 42 43 42 41 35 33 33 33 35 33 33 31 28 27 29 25 26 25 24 25 33 22 21 19 18 19 18 16 15 15 13 12 10 9 9 8 5 4 7 7 6 6 7 7 7 6 5 4 3 4 4 4 6 7 6 9 8 12 15 11 9 11 16 16 16 15 21 23 36 43 49 53 58 62
46 45 45 46 47 47 47 42 41 43 43 42 41 43 43 43 44 41 35 30 26 29 33 19 28 20 28 27 30 26 23 19 28 25 27 23 26 18 21 17 17 15 15 14 13 15 12 12 10 8 7 4 3 5 7 6 5 7 6 7 6 5 4 4 3 3 4 3 4 11 8 12 19 12 11 12 14 14 15 15 15 18 23 31 42 49 54 60
45 45 46 47 47 47 41 39 43 44 39 41 43 44 44 42 44 40 30 25 19 28 26 21 21 28 28 31 30 27 20 21 30 28 28 31 25 23 21 21 21 22 19 25 18 14 13 13 14 14 10 6 4 3 4 6 5 4 5 5 5 4 4 4 4 3 3 11 8 11 12 11 10 12 16 13 12 13 14 13 14 18 18 22 34 45 50 57
45 45 46 48 48 47 42 42 42 41 42 42 46 46 44 45 43 40 29 13 15 25 28 25 26 33 38 33 29 27 25 30 24 31 32 33 27 23 20 20 18 20 29 21 16 20 19 15 15 14 13 11 9 5 3 7 5 5 5 4 3 3 3 4 4 5 5 6 4 5 7 7 9 12 15 17 12 12 12 13 14 14 15 17 24 40 48 55
47 46 47 48 48 48 46 43 42 42 44 46 46 46 46 44 39 31 24 14 26 30 30 32 30 30 34 31 28 32 29 31 26 35 34 30 26 30 21 21 24 21 22 20 17 18 17 15 15 14 13 11 10 9 6 5 4 5 5 5 5 4 3 4 5 4 6 7 6 4 7 8 9 15 14 16 13 11 12 13 13 13 13 13 22 34 44 57
47 47 48 48 46 45 44 44 43 45 45 46 46 45 44 41 34 24 18 18 30 23 28 27 30 30 31 31 30 34 31 31 32 36 38 30 28 28 25 27 23 24 20 20 17 17 18 25 26 19 13 12 11 11 10 9 6 2 2 3 3 3 3 7 11 8 10 9 7 6 4 7 6 11 14 17 18 13 12 13 14 14 15 16 28 33 43 58
48 48 48 48 42 45 44 42 44 45 46 46 45 43 41 37 26 19 14 21 30 32 32 32 30 32 31 31 30 33 30 29 30 30 29 34 29 26 30 24 27 22 21 21 19 19 18 17 17 16 21 15 12 10 10 9 6 3 2 3 2 5 9 10 12 14 6 7 10 7 5 4 5 6 9 15 18 15 12 12 13 14 15 16 21 35 45 57
48 48 48 47 46 46 42 42 44 45 45 45 44 40 34 19 24 20 16 31 19 25 29 31 33 32 33 34 32 31 29 32 33 31 29 28 27 25 24 21 21 16 17 17 17 20 16 16 17 17 24 19 14 11 10 8 6 3 7 7 9 6 3 2 4 4 5 6 10 7 6 5 5 7 11 15 18 18 15 11 12 13 14 15 16 36 50 58
48 48 49 48 48 45 45 44 45 46 45 44 42 36 25 17 16 23 24 27 19 31 32 36 34 34 33 32 30 30 30 28 31 30 30 31 27 28 28 24 27 19 15 21 18 18 17 20 17 16 16 18 15 11 9 8 9 4 3 8 5 2 2 -1 8 10 12 13 9 8 9 7 9 13 12 13 14 17 17 16 14 14 15 17 21 38 53 59
48 48 45 46 45 44 45 48 48 46 44 44 38 31 22 19 21 31 29 27 29 39 38 36 35 34 33 26 29 30 23 27 29 30 28 29 28 26 27 27 25 24 23 22 18 18 11 15 16 17 15 14 13 11 9 7 6 4 5 2 10 7 6 -0 3 2 5 8 9 9 6 11 8 17 26 20 19 18 17 16 15 16 16 21 36 49 56 59
47 47 45 46 46 47 46 46 46 47 43 40 32 25 23 23 26 27 27 30 35 37 35 37 34 31 29 26 29 31 27 23 29 29 28 28 26 26 26 26 25 24 28 20 24 19 17 16 17 17 15 13 11 12 10 6 5 5 5 5 7 7 19 6 17 15 16 15 17 18 18 29 12 16 17 18 18 19 21 19 20 18 25 44 53 55 57 59
45 42 44 44 47 49 47 47 45 44 41 36 27 24 23 27 24 31 31 38 38 34 35 36 34 27 23 22 27 27 32 26 30 27 27 27 28 26 29 29 27 25 23 21 22 15 17 16 17 17 15 14 13 14 12 9 8 18 6 8 6 9 4 10 14 23 18 14 15 20 22 24 23 18 17 19 19 19 18 17 16 20 28 48 54 56 57 59
42 43 42 46 46 46 48 46 47 43 40 33 27 24 27 31 35 35 38 36 35 36 31 29 27 22 22 18 22 25 26 27 30 26 25 27 26 28 28 29 28 26 24 23 22 21 15 15 19 18 16 16 14 16 14 13 9 6 7 7 8 8 6 10 6 17 13 10 13 19 16 17 18 18 24 21 20 19 18 16 16 22 32 48 54 56 58 59
42 42 44 44 44 46 46 46 45 41 38 34 28 34 34 31 38 36 40 40 40 37 32 31 31 31 22 22 24 26 27 26 28 27 25 27 21 29 28 28 28 26 25 26 22 25 22 17 18 18 17 17 17 16 15 13 11 7 6 12 8 16 7 16 7 4 7 8 12 18 18 17 18 18 19 19 20 18 19 17 17 27 38 47 52 55 58 60
41 40 39 43 45 45 47 47 44 39 31 26 25 30 36 34 36 36 40 40 39 37 32 34 30 32 30 27 26 26 29 26 29 27 26 26 21 28 27 27 26 26 26 25 22 26 23 15 18 23 18 22 24 18 17 14 10 9 9 7 17 23 16 10 12 17 19 17 14 17 17 19 21 17 18 17 18 19 17 17 17 28 38 45 50 54 58 60
40 38 38 45 46 47 48 46 40 35 30 27 27 26 35 33 34 36 43 40 36 34 33 32 35 31 33 32 30 30 31 29 27 27 26 28 24 29 26 26 25 28 26 25 24 27 23 21 14 20 22 19 18 18 15 13 12 12 9 8 9 17 21 14 24 17 14 15 18 17 17 22 25 22 21 19 19 18 18 19 19 28 38 43 48 54 58 59
40 37 38 45 47 47 45 41 35 31 28 30 32 32 34 33 35 35 38 42 38 39 36 36 35 33 34 34 33 34 33 31 28 27 28 28 26 21 30 26 24 25 28 26 22 26 24 22 18 20 21 20 19 21 16 11 9 10 9 8 6 8 9 11 14 20 17 15 16 17 18 21 23 24 32 23 21 22 19 18 19 25 37 43 49 55 58 59
37 32 37 46 47 45 41 34 31 34 30 30 29 33 33 38 35 33 34 40 39 37 40 38 39 37 37 36 36 34 32 30 30 29 29 25 29 26 31 30 28 30 27 26 24 26 27 27 23 20 20 20 21 22 22 20 16 9 8 7 5 14 16 16 12 19 19 16 14 19 20 21 23 24 27 29 29 29 29 25 19 25 36 44 50 55 58 59
35 34 44 46 47 45 38 30 33 33 30 32 38 37 37 36 34 34 33 36 35 40 38 37 37 35 37 35 34 33 34 32 32 25 29 30 29 30 29 30 29 28 26 31 31 38 34 28 25 24 25 26 26 26 26 25 24 19 12 9 9 13 14 17 20 23 19 22 24 24 21 20 25 31 28 28 30 32 31 32 25 26 37 46 52 56 58 59
36 37 39 46 47 44 36 30 29 29 31 34 35 35 37 36 35 34 33 34 35 36 35 38 39 38 36 37 36 33 36 30 33 31 29 32 31 33 32 31 31 34 25 29 27 38 28 32 27 23 20 19 21 23 24 24 23 19 14 13 10 13 17 22 24 24 19 21 20 21 19 21 25 27 27 30 31 30 33 36 32 29 41 49 53 56 58 59
38 38 39 43 46 43 34 31 28 30 33 34 35 33 33 33 35 34 34 33 37 36 35 34 37 39 37 38 34 35 37 33 31 31 31 33 33 33 33 34 32 34 26 32 39 36 32 31 27 21 17 12 9 12 16 18 19 20 17 11 12 11 17 21 19 20 20 23 18 21 21 21 24 25 28 32 31 31 37 39 34 35 46 51 54 57 58 59
35 30 33 39 41 41 39 39 38 34 33 33 31 31 33 30 33 35 36 35 37 38 36 36 41 39 38 37 34 33 29 36 32 31 33 32 34 35 36 35 36 31 38 42 41 37 32 34 31 27 21 17 17 18 25 23 15 14 14 11 11 15 15 23 28 23 23 25 24 24 25 23 23 25 32 32 32 36 39 40 39 40 48 52 55 57 58 59
36 29 29 29 30 36 37 37 32 29 28 32 28 30 28 31 33 32 38 31 33 29 34 37 39 36 36 35 33 33 32 34 35 34 34 34 36 36 36 36 35 37 42 41 39 36 33 30 32 29 26 24 25 25 27 27 18 13 12 12 10 17 23 24 23 25 29 23 20 25 30 29 28 29 32 33 38 39 39 41 42 44 50 53 55 57 56 59
29 30 34 32 29 27 27 26 30 30 32 30 29 32 32 32 31 28 31 33 31 31 31 34 37 38 37 36 35 31 32 32 33 29 34 35 35 36 35 35 36 41 41 38 38 37 32 28 31 31 28 29 29 28 29 29 29 21 12 17 16 16 26 25 25 26 27 22 21 24 28 27 27 31 35 38 44 43 42 43 44 45 52 54 56 57 58 59
34 34 34 35 28 30 30 31 33 33 32 31 30 35 31 30 29 30 30 30 31 30 33 29 30 31 33 39 37 32 32 31 30 34 33 33 36 35 34 35 38 41 40 39 38 38 34 30 33 33 30 30 30 31 31 29 30 21 13 16 24 23 23 25 24 24 24 24 25 24 27 32 34 34 36 42 44 43 43 44 45 47 54 55 56 56 58 59
32 32 31 35 34 33 33 33 32 31 27 31 28 31 31 30 29 29 30 30 28 29 33 29 29 31 33 36 36 35 32 35 34 32 35 35 35 36 35 34 35 40 42 37 36 40 37 29 33 33 31 31 33 34 33 31 31 29 21 20 21 23 24 25 24 25 27 26 28 31 31 30 33 38 41 44 43 42 43 43 44 48 55 55 56 57 58 58
35 35 35 33 31 32 33 31 29 28 26 29 28 30 31 30 29 30 29 30 30 30 29 29 31 33 34 34 35 35 37 37 36 37 37 37 35 37 34 36 39 34 38 38 39 38 36 30 35 33 28 28 32 32 32 29 30 29 29 25 20 22 23 24 24 26 25 26 31 33 31 31 36 40 40 41 40 40 41 42 47 50 55 56 56 57 58 58
40 39 39 35 30 33 30 30 29 28 25 29 31 31 30 30 31 30 28 32 35 32 32 32 33 33 32 32 33 35 40 40 40 40 40 40 39 38 37 36 39 39 36 37 39 35 34 33 31 29 28 23 29 33 32 31 25 21 21 28 29 26 24 26 23 26 27 26 24 24 25 39 43 45 40 38 40 40 41 43 51 53 54 56 57 57 58 59